Location: Aghk�ilisa
(40.0189°N, 45.0097°E)
Time: 13:31:03
(UTC+00:00)

Delta 2 Rocket - Pass Details

Date: 21 October 2019
Orbit: 415 x 810 km, 35.6° (Epoch: 17 November)

Event Time Altitude Azimuth Distance (km) Brightness Sun altitude
Rises 15:46:23 0° 253° (WSW) 2,469 8.0 -18.7°
Reaches altitude 10° 15:48:41 10° 246° (WSW) 1,551 6.6 -19.1°
Maximum altitude 15:51:57 38° 176° (S) 663 3.6 -19.7°
Enters shadow 15:51:58 38° 175° (S) 663 3.6 -19.7°
